Regional Weather Roundup
Issued by NWS Columbia, SC

Current Version | Previous Version | Graphics & Text | Print | Product List | Glossary On
Versions: 1 2 3 4 5 6 7 8 9 10 11 12 13 14 15 16 17 18 19 20 21 22 23 24 25 26 27
000
ASUS42 KCAE 241110
RWRCAE
REGIONAL WEATHER ROUNDUP
NATIONAL WEATHER SERVICE COLUMBIA SC
700 AM EDT THU JUN 24 2021

NOTE: "FAIR" INDICATES FEW OR NO CLOUDS BELOW 12,000 FEET WITH NO
SIGNIFICANT WEATHER AND/OR OBSTRUCTIONS TO VISIBILITY.

NOT ALL STATIONS ARE QUALITY CONTROLLED BY THE NATIONAL
WEATHER SERVICE. USE DATA WITH CAUTION...ESPECIALLY
DEWPOINT OBSERVATIONS.

SCZ001>059-115-116-135>137-GAZ040-063>065-077-241200-
...UPSTATE SOUTH CAROLINA...

CITY           SKY/WX    TMP DP  RH WIND       PRES   REMARKS
ANDERSON       CLOUDY    67  63  87 NE6       30.25R
LIBERTY        CLOUDY    65  64  94 E3        30.26R
SPARTANBURG    MOCLDY    63  59  88 CALM      30.27S
CLEMSON        MOCLDY    66  63  90 E3        30.26R
GREENVILLE     CLOUDY    67  60  78 NE7       30.28R
GREENWOOD      PTCLDY    63  63 100 NE5       30.26R FOG
GREER          PTCLDY    62  58  86 N5        30.27R
ROCK HILL      MOCLDY    63  59  87 VRB3      30.29R
CHESTER        CLEAR     61  61 100 CALM      30.28R
LAURENS        CLEAR     61  61 100 CALM      30.27R


...CENTRAL SOUTH CAROLINA...

CITY           SKY/WX    TMP DP  RH WIND       PRES   REMARKS
COLUMBIA APT   MOCLDY    68  62  81 E9        30.23R
COLUMBIA OWENS CLEAR     68  62  81 E5        30.25R
MCENTIRE ANGB  PTCLDY    65  64  95 E6        30.23R
ORANGEBURG     CLEAR     67  65  93 NE7       30.23R
SUMTER SHAW    CLEAR     64  60  88 NE7       30.25R
AIKEN          MOCLDY    66  64  94 NE5       30.25R
BARNWELL       FAIR      66  64  94 NE5       30.22R
MANNING        FAIR      63  59  88 NE5       30.23R
CAMDEN         FAIR      63  61  94 CALM      30.26R
LANCASTER      CLEAR     63  59  88 CALM      30.27R
WINNSBORO      CLEAR     63  61  94 NE5       30.26R


...EASTERN AND COASTAL SOUTH CAROLINA...

CITY           SKY/WX    TMP DP  RH WIND       PRES   REMARKS
MYRTLE BEACH   CLEAR     64  59  83 N8        30.24R
N MYRTLE BCH   CLEAR     62  57  83 NE8       30.23R
CONWAY         FAIR      61  55  82 NE5       30.25R
MARION         FAIR      61  55  82 NE6       30.26R
HARTSVILLE     FAIR      63  57  82 NE8       30.27R
FLORENCE       CLEAR     63  56  78 NE7       30.26R
DARLINGTON     CLEAR     62  60  93 NE6       30.28R
CHARLESTON APT PTCLDY    69  63  81 NE7       30.20R
MOUNT PLEASANT FAIR      68  66  94 CALM      30.19S
WALTERBORO     CLEAR     64  63  94 NE6       30.21R
BEAUFORT         N/A    N/A N/A N/A MISG      30.18R
HILTON HEAD    PTCLDY    75  68  78 NE9       30.18R


...EASTERN GEORGIA...

CITY           SKY/WX    TMP DP  RH WIND       PRES   REMARKS
AUGUSTA BUSH F PTCLDY    67  64  90 NE6       30.21R
AUGUSTA DANIEL CLEAR     70  62  76 E7        30.23R
THOMSON        MOCLDY    67  65  92 E3        30.22R
WASHINGTON     FAIR      64  63  94 E3        30.22R
CLAXTON        CLOUDY    73  69  87 E5        30.18R
SYLVANIA       CLEAR     69  65  87 CALM      30.21R
STATESBORO     MOCLDY    68  64  85 CALM      30.20R
SAVANNAH       MOCLDY    71  68  90 E10       30.17R


...SOUTHERN NORTH CAROLINA...

CITY           SKY/WX    TMP DP  RH WIND       PRES   REMARKS
CHARLOTTE      PTCLDY    65  58  78 E9        30.29R
MONROE         CLEAR     61  59  93 NE6       30.29R
WADESBORO      PTCLDY    60  57  92 N3        30.29R
ROCKINGHAM     CLEAR     61  57  87 NE3       30.29R
RUTHERFORDTON  LGT RAIN  64  61  88 NE3       30.30R
ASHEVILLE      MOCLDY    60  58  92 S3        30.32R

$$



USA.gov is the U.S. government's official web portal to all federal, state and local government web resources and services.